Tracking 18980 objects as of 18-Feb-2018
HD Live streaming from Space Station
objects crossing your sky now

EKRAN 1

Track EKRAN 1 now!
EKRAN 1 is classified as:


NORAD ID: 9503
Int'l Code: 1976-107A
Perigee: 35,546.0 km
Apogee: 36,065.3 km
Inclination: 10.8 °
Period: 1,436.7 minutes
Semi major axis: 42176 km
RCS: 3.5481 m2 (large)
Launch date: October 26, 1976
Source: Commonwealth of Independent States (former USSR) (CIS)
Launch site: TYURATAM MISSILE AND SPACE COMPLEX (TTMTR)
aabbcc
Your satellite tracking list
Your tracking list is empty




NASA's NSSDC Master Catalog

Two Line Element Set (TLE):
1  9503U 76107A   18048.01020883 +.00000028 +00000-0 +00000-0 0  9991
2  9503 010.7599 311.4079 0061562 090.7472 171.1728 01.00229249168005
Source of the keplerian elements: AFSPC